Location: Newark
(51.3318°N, 0.0053°E)
Time: 02:44:08
(UTC+00:00)

RS-44 - Visible Passes

Search period start: 28 June 2022 00:00
Search period end: 08 July 2022 00:00
Orbit: 1175 x 1509 km, 82.5° (Epoch: 27 June)

Date Brightness Start Highest point End Pass type
(mag) Time Alt. Az. Time Alt. Az. Time Alt. Az.
28 Jun ? 22:11:42 10° SW 22:19:17 39° WNW 22:27:23 10° N visible
29 Jun ? 00:12:53 10° WNW 00:15:59 12° NW 00:19:09 10° NNW visible
29 Jun ? 22:36:43 10° WSW 22:43:42 29° WNW 22:51:03 10° N visible
30 Jun ? 21:04:42 10° SSW 21:12:54 70° WNW 21:21:43 10° N visible
30 Jun ? 23:02:15 10° W 23:08:18 21° NW 23:14:37 10° N visible
01 Jul ? 21:28:58 10° SW 21:36:58 50° WNW 21:45:31 10° N visible
01 Jul ? 23:28:24 10° WNW 23:33:07 15° NW 23:37:58 10° N visible
02 Jul ? 21:53:40 10° SW 22:01:15 36° WNW 22:09:15 10° N visible
02 Jul ? 23:55:36 10° NW 23:58:09 11° NNW 00:00:43 10° NNW visible
03 Jul ? 22:18:50 10° WSW 22:25:43 27° NW 22:32:55 10° N visible
04 Jul ? 20:46:29 10° SSW 20:54:47 64° WNW 21:03:38 10° N visible
04 Jul ? 22:44:31 10° W 22:50:23 20° NW 22:56:27 10° N visible
05 Jul ? 21:10:53 10° SW 21:18:55 46° WNW 21:27:25 10° N visible
05 Jul ? 23:10:52 10° WNW 23:15:15 14° NW 23:19:43 10° N visible
06 Jul ? 21:35:42 10° WSW 21:43:14 34° WNW 21:51:08 10° N visible
06 Jul ? 23:38:35 10° NW 23:40:20 11° NNW 23:42:05 10° NNW visible
07 Jul ? 22:01:00 10° WSW 22:07:45 25° NW 22:14:46 10° N visible
